Погода в Казани

Погода в Казани : погода сейчас, прогноз погоды и архив. Всё, что Вы хотите узнать о погоде в Казани!

Хотите узнать прогноз погоды в Казани? Тогда Вам сюда: Погода в Казани

Поиск расширенной информации на нашем сайте:

Другие новости

Новости СМИ2

Главная страница сайта

Новости сайта

03.07.2017

Напоминаем, что на нашем специализированном сайте Метеоцентр.Азия вы можете получить высокодетализированные автоматические прогнозы погоды по пунктам России, СНГ и мира в авиационном формате (включающие направление и скорость ветра, видимость, явления погоды, количество и форму облачности, нижнюю и верхнюю границу облачности).


Погода в Казани - сегодня

Время (UTC), дата Ветер
(°,м/с) 
Видим.   Явления Облачность Т
(°С)
Тd
(°С)
f(%) Тe
(°С)
Pmin
(гПа)
dP
(гПа)
Po
(мм)
O2
(г/м3)
Тmin Tmax R s Состояние
почвы
12 11.12.17 130 (ЮВ) 10 км  слаб. снег  10/0 средняя 
[As op]
-6.7 -7.9 91 -8  1025.8  -0.9  758  314           
15 11.12.17 120 (ЮВ) 10 км  {снег}  10/0 средняя 
[As op]
-6.2 -7.4 91 -8  1025.7  0.1  758  313    -6.2     
18 11.12.17 120 (ЮВ) 10 км  слаб. снег  10/8 600 м средняя 
[Sc|As op]
-5.4 -6.6 91 -7  1024.6  -1  757  312           
21 11.12.17 140 (ЮВ) 2000 м  снег  10/10 300 м 
[Ns]
-3.6 -4.6 93 -6  1024.1  -0.4  757  309           
00 12.12.17 150 (ЮВ) 10 км  {снег}  10/0 средняя 
[As op]
-3.2 -4.2 93 -4  1023.7  -0.3  756  309           
03 12.12.17 140 (ЮВ) 10 км    10/0 средняя 
[As op]
-3.3 -4.4 92 -5  1023.8  756  309  -6.2    26  равномерный
сухой снег
100% 
06 12.12.17 150 (ЮВ) 10 км    10/0 средняя 
[As op]
-3.1 -4.1 93 -4  1025  1.2  757  309           
09 12.12.17 150 (ЮВ) 10 км  {снег}  10/0 средняя 
[As op]
-3 -4.1 92 -5  1025.1  0.1  757  309           
12 12.12.17 130 (ЮВ) 2000 м  слаб. ливневой снег  10/10 300 м кучево-дожд. 
[Cb cap]
-3.1 -4 93 -6  1025.1  757  309           
15 12.12.17 130 (ЮВ) 2000 м  метель{ливн. осадки, снег}  10/10 200 м 
[Frnb|Ns]
-3.2 -4 94 -5  1025.5  0.3  758  309    -2.9     
18 12.12.17 130 (ЮВ) 4000 м  слаб. снег{ливн. осадки}  10/10 300 м 
[Ns]
-3.2 -3.9 95 -4  1025.2  -0.3  757  309           
21 12.12.17 130 (ЮВ) 10 км  слаб. снег  10/10 300 м 
[Ns]
-3.2 -3.9 95 -4  1025.6  0.4  758  309           
00 13.12.17 150 (ЮВ) 10 км  слаб. снег  10/10 600 м 
[Sc]
-2.9 -3.7 94 -6  1025.3  -0.3  758  309           
03 13.12.17 140 (ЮВ) 10 км  позёмок{снег}  10/5 600 м средняя 
[Sc|As op]
-3.2 -4.4 91 -6  1025.3  758  309  -3.4    28  равномерный
сухой снег
100% 
06 13.12.17 140 (ЮВ) 10 км  позёмок{снег}  10/10 600 м кучево-дожд. 
[Cb cap]
-3.5 -4.7 91 -6  1025  -0.3  757  310  -3.5         
09 13.12.17 150 (ЮВ) 5-10{12}  10 км  позёмок{ливн. осадки, снег}  10/10 600 м кучево-дожд. 
[Cb cap]
-3.3 -4.7 90 -7  1023.9  -1.1  757  309           
12 13.12.17 140 (ЮВ) 4{12}  10 км  позёмок{ливн. осадки, снег}  10/10 300 м кучево-дожд. 
[Cb cap]
-3.7 -4.8 92 -7  1023.1  -0.9  756  309           
15 13.12.17 150 (ЮВ) 4{11}  10 км  слаб. снег  10/10 300 м кучево-дожд. 
[Cb cap]
-3.3 -4.4 92 -6  1022.3  -0.7  755  309    -3.2     
18 13.12.17 140 (ЮВ) 4{10}  10 км  слаб. переохл. морось (гололёд){снег}  10/10 300 м 
[St]
-2.8 -3.7 94 -6  1021.6  -0.8  755  308           
21 13.12.17 160 (Ю) 10 км  слаб. переохл. морось (гололёд) [диам. гололёда 2 мм]  10/10 300 м 
[St]
-1.8 -2.7 94 -3  1021.5  755  306           
00 14.12.17 170 (Ю) 10 км  слаб. переохл. морось (гололёд) [диам. гололёда 2 мм]  10/10 300 м 
[St]
-1.8 -2.8 93 -4  1021.3  0.1  755  306           
03 14.12.17 150 (ЮВ) 2{12}  10 км  слаб. переохл. морось (гололёд) [диам. гололёда 2 мм]  10/10 300 м 
[St]
-1.7 -2.6 94 -3  1021.8  0.5  755  306  -3.3    0.7  24  равномерный
сухой снег
100% 
06 14.12.17 150 (ЮВ) 10 км  слаб. снег{морось} [диам. гололёда 2 мм]  10/10 300 м 
[Ns]
-1 -1.7 95 -2  1021.8  0.1  755  306           
09 14.12.17 180 (Ю) 10 км  слаб. переохл. дождь (гололёд){снег} [диам. гололёда 3 мм]  10/10 300 м 
[Ns]
-0.3 -1 95 -2  1021.9  0.1  755  305           
12 14.12.17 170 (Ю) 3{12}  10 км  слаб. переохл. дождь (гололёд){снег} [диам. гололёда 3 мм]  10/10 300 м 
[St]
-0.4 -1.2 94 -2  1022.5  0.6  756  305           
Время (UTC), дата Ветер
(°,м/с) 
Видим.   Явления Облачность Т
(°С)
Тd
(°С)
f(%) Тe
(°С)
Pmin
(гПа)
dP
(гПа)
Po
(мм)
O2
(г/м3)
Тmin Tmax R s Состояние
почвы

Для получения пояснительной информации подведите курсор к названию столбца.

ПОГОДА в Казани - архив

Всё, что Вы хотите узнать о погоде в Казани - удобно и подробно!

Выберите нужную дату (начиная с 1 января 2015* года) и нажмите кнопку "Найти".
Будут отображены архивные сводки погоды по пункту Казань, начиная с указанной даты.


Отображать данные в формате CSV (для использования в таблицах Excel)


Внимание! Наш архив погоды предназначен исключительно для личного некоммерческого использования в познавательных целях. Если Вам необходимы официальные справки о состоянии погоды (для производственных, юридических, коммерческих и т.п. целей), обращайтесь в органы Росгидромета.

*Примечание: данная дата относится к архиву по метеостанциям СССР (Россия, СНГ, Балтия).
Архив по метеостанциям Зарубежной Европы и Азии (кроме Китая) хранится 10 дней, по другим регионам земного шара (Китай, Африка, Америка, Австралия, Океания) - 1 день.

Казань - район местоположения метеостанции


Название, широта, долгота, высота метеостанции:
Казань 55.6°ш. 49.3°д. 116 м над ур. моря [Российская Федерация]

Дополнительная информация

В oтличие oт бoльшинства пoгoдных сайтoв мы публикуем пoдрoбную метеoинфoрмацию в детальнoм прoфессиoнальнoм фoрмате.

Характеристики температуры и влажнoсти вoздуха измеряются на высoте 2 м в тени вдали oт зданий и деревьев.
Скoрoсть ветра измеряется на высoте 10 м (на урoвне рoста челoвека скoрoсть ветра ниже в 1.5-2 раза). Если метеoстанция нахoдится в гoрoде или в лесу, тo скoрoсть ветра занижена на 2-4 м/с пo сравнению с oткрытым местoм. Скoрoсть ветра над акватoриями крупных рек и oзёр, а также на вершинах хoлмoв на 2-5 м/с выше, чем в oбычных услoвиях.
Атмoсфернoе давление в разных тoчках местнoсти мoжет значительнo oтличаться oт давления на метеoстанции, в зависимoсти oт услoвий рельефа (при пoдъёме на 10 м давление пoнижается примернo на 1 мм рт.ст.).